Orbital Elements at Epoch 2459000.5 (2020-May-31.0) TDB
Reference: JPL 19 (heliocentric ecliptic J2000)
Element | Value | Uncertainty (1-sigma) | Units |
e | .09404550685209123 | 4.488e-08 | |
a | 2.995992324604511 | 2.3095e-08 | au |
q | 2.714232707912105 | 1.4438e-07 | au |
i | 11.0219447434484 | 4.6521e-06 | deg |
node | 96.43020900163825 | 2.2446e-05 | deg |
peri | 259.9611547842741 | 3.3514e-05 | deg |
M | 304.3013092947075 | 2.5462e-05 | deg |
tp | 2459293.556903985432 (2021-Mar-20.05690399) | 0.00013503 | TDB |
period | 1894.128642861096 5.19 | 2.1902e-05 5.996e-08 | d yr |
n | .1900610084520011 | 2.1977e-09 | deg/d |
Q | 3.277751941296918 | 2.5267e-08 | au |
|
| | Orbit Determination Parameters
Additional Information
|